Wind_Speed
50 49 50 51 51 53 52 49 45 42 41 40 39 38 39 40 42 43 45 48 49 51 48 47 46 44 43 48 45 40 35 37 35 33 31 31 31 28 24 23 22 19 23 22 25 21 13
51 49 50 53 51 52 51 48 45 42 41 39 38 38 37 39 40 41 42 44 47 45 41 39 41 43 43 43 49 38 37 38 36 34 32 32 31 29 26 22 21 20 23 22 22 23 15
55 55 51 50 51 49 49 48 45 43 40 40 38 37 38 40 39 40 42 40 41 42 39 35 37 41 40 45 49 41 40 40 37 34 34 34 32 29 26 25 22 21 23 22 20 23 17
56 53 51 48 48 47 49 48 46 43 40 38 37 37 37 37 39 40 37 36 37 37 39 33 35 40 40 46 43 38 39 43 41 38 35 35 32 28 26 24 22 22 24 22 22 24 18
55 53 50 46 47 48 49 47 48 43 40 40 37 37 37 38 38 39 38 37 34 32 37 29 31 35 37 43 40 38 36 41 48 42 38 37 33 28 26 25 24 21 22 22 26 25 20
55 50 49 48 48 49 47 48 45 41 43 42 40 39 39 39 39 38 37 36 35 32 27 32 28 29 35 39 36 46 39 40 44 41 40 38 35 29 27 26 20 21 22 27 26 26 19
50 48 51 50 48 49 48 45 45 45 45 44 43 42 41 40 38 37 37 37 34 29 24 29 25 25 31 36 33 34 39 38 40 44 41 37 37 32 23 26 25 24 23 23 26 25 21
50 50 49 50 49 50 50 50 48 47 48 45 44 43 43 41 40 39 36 37 34 30 19 32 30 19 27 32 31 34 37 36 40 44 41 42 40 27 33 31 29 28 27 24 25 25 23
54 54 51 50 50 50 51 51 50 50 49 47 46 45 44 43 40 40 37 38 35 29 23 25 28 27 22 28 33 37 38 39 38 44 48 44 35 32 36 33 31 27 26 26 24 26 27
55 54 52 51 51 51 52 52 51 52 51 49 47 47 46 44 42 41 39 39 36 27 24 24 25 24 23 18 23 39 43 40 36 43 49 51 41 39 40 36 31 29 27 30 29 29 25
56 56 56 53 54 53 53 53 53 52 52 51 50 48 47 44 42 41 39 38 37 29 27 23 22 16 18 18 18 27 34 39 40 44 48 39 42 40 39 32 34 27 34 32 33 31 30
58 59 59 59 57 57 54 54 55 54 53 52 52 49 48 45 43 41 38 37 36 31 29 25 23 21 18 19 18 21 28 35 36 44 48 44 43 42 43 36 37 37 36 36 34 35 32
63 63 63 62 61 59 57 55 55 55 54 53 53 50 50 49 47 43 41 38 38 33 30 29 26 25 23 21 17 19 23 26 34 43 45 39 41 43 43 41 38 40 38 36 36 41 33
72 71 68 68 65 63 62 58 56 56 55 55 54 53 52 50 49 45 43 41 40 37 32 31 28 29 27 24 22 18 22 23 23 40 37 36 38 42 43 41 37 34 33 37 40 41 33
76 76 75 73 70 67 65 62 60 59 58 57 56 55 53 51 50 48 47 45 43 42 35 34 32 31 32 28 22 23 20 23 24 24 36 33 36 39 43 41 41 40 42 38 40 41 39
77 76 75 71 69 67 64 61 60 59 59 58 57 55 50 50 50 51 51 49 45 43 42 37 34 34 33 33 31 27 26 25 23 24 31 32 35 32 29 33 37 40 42 42 44 44 42
57 59 64 68 69 66 64 62 60 57 57 56 54 53 50 48 51 53 52 50 46 42 45 42 38 34 35 37 34 33 34 28 27 26 26 34 31 34 31 33 31 33 37 39 43 43 41
51 51 51 55 58 61 64 63 61 58 58 55 52 50 50 49 50 51 49 47 46 40 44 42 39 38 35 38 39 37 36 36 31 27 27 31 38 33 35 35 33 32 34 34 38 42 40
53 51 53 55 56 58 59 59 60 59 59 56 53 48 48 49 50 46 45 45 44 39 40 43 43 38 36 37 40 40 40 38 37 34 32 31 34 38 41 39 38 38 37 36 37 36 39
48 47 49 50 51 53 56 59 57 56 55 54 53 50 48 49 45 43 42 40 40 40 43 43 42 40 37 36 41 41 41 42 37 37 35 34 34 35 38 42 42 40 40 40 38 38 38
46 46 45 47 55 56 57 57 57 55 53 51 49 45 46 46 43 41 39 38 41 40 36 36 39 34 32 36 41 43 45 44 44 37 31 33 38 38 37 38 39 40 40 41 40 40 42
43 41 40 42 41 40 43 52 54 52 51 50 45 42 43 43 42 39 38 36 34 28 30 30 31 30 28 30 38 49 48 48 47 45 45 43 37 31 35 35 32 36 39 42 44 43 44
39 39 39 38 36 37 35 43 47 49 49 47 44 43 43 40 38 37 35 32 30 29 27 26 29 26 27 30 36 43 52 51 48 47 43 43 42 41 39 37 37 39 35 34 35 36 38
36 35 36 34 32 32 30 37 43 45 45 44 41 40 39 36 34 31 28 26 25 25 24 27 25 24 26 28 30 36 41 46 51 50 48 46 37 38 37 32 42 42 35 36 35 35 40
32 32 31 29 29 28 28 33 39 41 41 41 40 38 35 35 31 28 26 25 27 27 28 29 23 21 17 24 25 29 31 34 36 38 46 48 45 44 42 44 44 41 37 32 34 35 37
28 27 27 25 26 25 28 30 35 39 39 40 36 35 36 34 28 26 29 28 26 29 28 23 15 16 20 23 25 26 26 27 28 29 32 36 37 37 38 41 41 39 31 28 31 34 41
25 23 22 22 23 24 26 31 32 35 37 36 34 33 33 29 24 31 31 30 28 26 22 17 17 15 24 23 26 26 25 25 23 26 27 26 25 21 19 20 22 21 24 23 22 23 22
22 20 19 19 19 21 24 27 30 33 35 35 31 32 30 25 32 34 32 28 24 22 19 17 16 21 26 24 25 25 23 24 25 23 25 24 21 19 17 17 16 17 19 21 19 18 18
18 18 16 15 17 20 22 24 27 30 31 32 31 28 27 32 34 34 33 22 22 24 23 20 17 20 27 26 26 24 23 23 23 25 24 24 20 18 19 19 23 23 22 21 21 21 23
Wind_Direction
286 287 289 288 283 284 284 283 283 284 283 283 283 286 288 290 293 294 300 300 299 302 291 273 260 255 251 245 242 227 225 228 229 227 229 230 234 232 236 243 252 256 258 257 262 267 272
282 281 283 283 282 282 281 282 282 282 279 279 281 286 288 291 294 297 300 300 304 311 292 271 258 252 245 243 244 227 216 224 226 220 224 228 230 233 234 243 253 251 252 256 261 266 271
280 280 277 276 279 281 280 279 279 277 277 277 281 285 288 290 292 293 294 296 306 314 301 274 260 252 251 249 244 233 215 218 219 221 222 226 230 234 235 241 251 252 249 254 258 261 267
278 275 274 276 275 276 278 277 276 274 273 274 279 282 285 286 288 289 290 295 302 311 318 287 267 251 248 246 249 232 215 213 216 220 222 227 225 231 237 240 248 250 251 255 261 255 262
275 273 276 275 276 274 274 274 270 268 270 272 276 280 283 284 284 287 288 292 303 311 312 304 273 259 252 246 246 234 232 217 217 214 222 227 227 228 235 238 246 250 253 250 261 253 256
273 273 274 274 274 273 269 267 265 265 267 272 274 277 280 281 281 285 287 290 296 302 310 308 297 271 260 251 244 231 235 222 219 212 217 224 227 227 232 239 253 251 242 245 253 256 257
269 271 272 272 270 269 266 263 263 265 268 270 273 276 279 281 281 283 284 289 293 297 298 307 297 288 261 248 236 231 230 222 218 217 218 223 226 225 235 239 237 243 243 243 250 255 258
272 272 272 270 266 263 262 262 262 265 266 267 269 274 278 279 281 280 280 282 287 294 294 296 300 301 261 244 238 237 226 228 231 223 221 221 224 223 230 229 231 236 241 246 253 253 252
273 271 269 266 265 262 260 261 263 265 265 265 267 272 276 279 281 279 279 279 282 289 294 275 286 301 278 248 236 232 228 230 228 222 221 225 224 221 226 229 229 235 240 245 250 248 252
272 269 267 265 263 262 262 261 262 264 265 264 266 270 275 279 281 279 278 276 280 284 287 287 284 285 286 267 237 230 225 230 225 222 221 224 218 217 226 226 224 227 235 241 245 250 256
272 271 269 265 265 263 262 262 262 262 262 263 265 269 274 278 279 276 275 274 278 281 285 281 286 279 290 276 259 238 229 226 224 218 219 227 225 219 228 230 225 221 231 237 241 249 247
271 270 267 265 264 264 263 262 262 262 261 262 265 269 273 274 276 275 275 275 277 279 281 281 279 275 272 279 271 269 234 225 222 223 221 224 225 216 221 223 223 223 229 235 241 245 245
272 270 267 266 264 263 263 263 261 261 261 262 264 268 272 273 274 274 275 275 276 276 277 276 276 273 263 260 273 268 263 235 225 224 220 222 219 216 220 222 225 223 226 234 240 246 250
271 269 267 265 264 262 262 261 261 261 260 261 264 266 270 273 274 275 275 276 276 274 274 274 272 273 265 258 254 254 258 261 237 225 217 226 228 223 218 223 226 228 229 238 240 248 256
268 266 264 264 263 262 261 261 261 261 261 261 262 265 270 271 273 274 275 275 276 276 273 271 269 266 263 251 246 244 247 247 250 230 231 223 228 222 220 222 220 220 224 230 240 245 248
269 265 263 262 261 261 261 261 261 261 261 261 261 263 265 267 268 270 272 274 278 277 274 269 265 262 259 254 242 240 241 241 245 236 242 234 220 218 222 224 220 224 224 225 234 239 244
275 269 264 261 260 260 260 259 259 259 260 260 260 260 261 262 264 266 268 273 274 276 273 272 267 257 252 251 245 239 237 238 239 235 234 241 235 223 222 225 226 226 228 230 235 239 243
275 272 267 265 262 257 256 255 255 255 256 256 256 256 255 257 258 262 265 266 267 273 275 275 270 265 251 246 245 237 235 233 233 233 237 226 234 235 228 237 236 235 236 231 234 242 243
274 271 268 266 263 259 256 254 252 250 251 250 250 249 250 251 254 258 260 262 263 267 271 272 271 263 253 241 239 237 232 233 233 230 230 234 225 226 232 231 234 235 236 239 243 245 249
274 273 271 268 265 262 258 252 248 247 249 247 245 244 243 248 252 254 255 258 264 266 265 264 264 262 250 235 233 232 229 227 229 233 230 228 235 230 229 233 233 235 238 240 242 247 252
276 276 273 276 278 269 254 248 244 241 241 244 243 241 240 242 247 250 248 254 263 263 258 253 254 255 247 235 227 227 224 224 221 223 221 232 233 233 234 235 237 238 242 246 245 248 254
276 273 272 274 278 275 255 234 233 233 236 236 238 237 237 239 242 243 247 259 257 253 245 243 245 242 230 224 221 218 224 224 223 223 224 225 222 234 236 234 234 234 240 245 248 251 255
274 269 268 269 272 268 257 228 222 223 227 232 231 231 233 234 237 240 251 247 248 237 227 229 233 227 212 219 222 222 225 225 226 224 226 231 235 234 232 239 242 238 237 242 246 251 256
273 272 268 267 265 261 243 226 219 220 224 228 228 230 230 230 233 242 241 241 221 213 217 220 217 219 227 228 226 227 226 227 229 231 232 231 229 237 242 241 242 246 248 248 251 257 260
274 270 266 262 257 252 233 224 218 219 221 224 224 226 226 224 233 230 229 210 202 207 202 205 220 218 209 221 222 224 230 232 231 232 236 239 237 240 243 246 247 248 249 255 255 256 260
276 270 264 256 250 243 229 221 219 220 220 221 221 221 221 221 223 220 202 200 206 195 212 214 195 208 207 202 211 216 222 228 225 226 227 232 236 239 245 247 251 247 247 250 255 249 254
276 269 260 251 243 233 226 216 214 214 214 217 218 220 218 222 214 195 193 202 203 203 207 209 198 197 198 202 208 214 220 220 217 218 221 221 225 228 229 231 237 234 232 232 233 246 246
270 265 256 243 232 224 215 209 207 208 211 213 212 214 220 218 189 188 192 201 209 215 214 201 199 195 195 205 209 213 216 212 209 208 213 213 212 210 204 202 210 217 222 226 229 235 247
261 254 246 231 220 212 207 203 205 206 208 210 205 212 216 190 180 188 195 207 209 213 210 196 188 188 195 203 210 215 213 211 208 210 212 212 214 219 218 223 236 236 239 237 246 252 260
Height
5748 5748 5747 5747 5746 5745 5744 5742 5740 5738 5738 5737 5737 5734 5732 5731 5728 5726 5723 5719 5713 5707 5704 5703 5704 5706 5710 5714 5716 5719 5727 5733 5737 5741 5745 5750 5754 5756 5759 5762 5763 5766 5765 5766 5766 5765 5764
5738 5735 5734 5736 5735 5734 5733 5732 5731 5729 5729 5728 5726 5725 5723 5721 5719 5717 5715 5711 5705 5700 5692 5690 5692 5695 5699 5703 5703 5710 5715 5724 5729 5732 5737 5743 5746 5749 5752 5755 5758 5761 5760 5761 5761 5761 5761
5726 5726 5722 5721 5722 5723 5723 5723 5721 5721 5719 5719 5718 5715 5714 5713 5711 5709 5706 5703 5697 5693 5685 5681 5681 5684 5689 5694 5692 5701 5706 5713 5720 5724 5729 5734 5738 5743 5746 5748 5752 5755 5757 5755 5756 5756 5757
5713 5713 5712 5710 5711 5710 5711 5711 5710 5710 5709 5709 5708 5707 5705 5706 5704 5702 5700 5696 5692 5687 5680 5672 5672 5674 5678 5678 5683 5690 5695 5703 5710 5716 5721 5726 5731 5736 5740 5744 5746 5749 5751 5752 5751 5751 5753
5702 5701 5700 5698 5698 5698 5699 5699 5701 5700 5700 5699 5696 5696 5696 5697 5696 5694 5693 5689 5685 5681 5675 5667 5666 5665 5670 5673 5676 5680 5690 5695 5700 5707 5712 5718 5724 5729 5733 5738 5740 5744 5746 5748 5746 5747 5749
5687 5689 5688 5687 5686 5688 5686 5689 5689 5689 5690 5689 5687 5686 5687 5687 5687 5686 5686 5683 5679 5676 5671 5664 5660 5659 5661 5663 5666 5672 5681 5687 5693 5698 5703 5710 5716 5722 5726 5732 5737 5738 5739 5740 5742 5742 5745
5674 5672 5675 5675 5673 5675 5676 5676 5677 5678 5678 5678 5678 5678 5679 5678 5677 5678 5678 5676 5673 5673 5666 5661 5655 5653 5652 5655 5660 5666 5673 5679 5685 5690 5696 5704 5708 5714 5724 5726 5727 5730 5733 5736 5737 5737 5740
5663 5661 5660 5661 5661 5661 5663 5665 5665 5665 5666 5666 5667 5669 5669 5669 5668 5669 5669 5668 5666 5665 5665 5650 5651 5650 5646 5648 5654 5657 5663 5671 5676 5684 5690 5694 5699 5713 5713 5716 5720 5725 5727 5730 5730 5732 5734
5651 5650 5647 5647 5647 5649 5650 5651 5653 5654 5655 5655 5657 5658 5659 5659 5659 5659 5660 5660 5658 5657 5656 5652 5647 5644 5642 5642 5646 5650 5656 5663 5668 5673 5679 5686 5698 5703 5703 5708 5713 5720 5722 5723 5723 5725 5727
5637 5636 5635 5634 5634 5635 5637 5638 5640 5642 5644 5644 5646 5647 5649 5649 5650 5650 5650 5651 5650 5649 5649 5647 5644 5641 5637 5637 5639 5640 5648 5655 5660 5665 5670 5676 5687 5691 5694 5699 5706 5711 5717 5716 5717 5717 5722
5621 5622 5622 5621 5623 5622 5622 5625 5627 5629 5631 5633 5634 5635 5637 5638 5639 5640 5641 5641 5642 5642 5640 5641 5638 5636 5634 5634 5634 5636 5639 5643 5651 5656 5663 5675 5679 5683 5688 5697 5698 5708 5706 5709 5709 5712 5714
5606 5607 5607 5606 5608 5609 5609 5610 5613 5615 5617 5620 5623 5625 5626 5627 5628 5630 5630 5631 5633 5634 5632 5632 5633 5631 5631 5631 5630 5629 5631 5636 5644 5648 5654 5662 5668 5673 5678 5687 5690 5694 5698 5701 5705 5706 5707
5591 5591 5591 5591 5592 5593 5594 5596 5598 5601 5603 5606 5609 5612 5613 5614 5617 5618 5620 5622 5623 5624 5625 5625 5626 5627 5627 5626 5627 5626 5626 5630 5636 5639 5645 5652 5660 5664 5670 5677 5682 5685 5692 5696 5701 5698 5704
5573 5572 5571 5573 5573 5575 5578 5581 5583 5587 5589 5592 5597 5599 5600 5601 5604 5606 5609 5611 5612 5614 5616 5616 5618 5620 5622 5623 5623 5625 5624 5624 5628 5632 5638 5644 5652 5657 5663 5670 5678 5683 5688 5691 5693 5694 5701
5548 5549 5550 5552 5554 5556 5560 5563 5567 5571 5573 5577 5582 5585 5586 5588 5592 5593 5596 5599 5601 5603 5607 5608 5609 5612 5615 5616 5618 5620 5621 5621 5622 5628 5632 5637 5642 5648 5653 5659 5665 5672 5673 5684 5683 5686 5690
5524 5525 5527 5530 5533 5537 5541 5545 5550 5554 5556 5561 5566 5571 5572 5575 5578 5580 5582 5586 5590 5591 5593 5597 5600 5604 5607 5609 5612 5614 5615 5617 5619 5622 5626 5631 5635 5640 5644 5649 5656 5663 5667 5672 5673 5676 5680
5502 5502 5505 5507 5512 5517 5521 5526 5533 5538 5540 5545 5551 5556 5559 5562 5564 5567 5571 5574 5578 5579 5579 5585 5589 5594 5598 5600 5603 5606 5609 5612 5613 5617 5621 5626 5630 5635 5639 5642 5649 5655 5658 5665 5668 5671 5674
5486 5486 5486 5488 5491 5496 5500 5507 5514 5520 5522 5529 5535 5543 5545 5548 5551 5554 5561 5564 5568 5569 5567 5571 5577 5581 5587 5589 5593 5599 5601 5605 5607 5612 5615 5620 5624 5629 5635 5638 5643 5646 5650 5656 5659 5662 5667
5469 5469 5470 5471 5473 5477 5481 5487 5494 5501 5505 5511 5520 5528 5531 5533 5537 5544 5549 5551 5554 5558 5558 5559 5562 5569 5574 5580 5585 5588 5594 5597 5600 5605 5609 5614 5618 5624 5628 5634 5636 5639 5643 5648 5652 5657 5659
5452 5452 5453 5454 5456 5459 5462 5468 5476 5483 5488 5495 5504 5513 5519 5520 5526 5531 5536 5541 5542 5547 5547 5548 5551 5555 5562 5568 5572 5579 5584 5589 5595 5598 5603 5608 5612 5618 5623 5627 5629 5634 5638 5642 5646 5649 5652
5437 5437 5437 5436 5435 5437 5441 5448 5457 5466 5471 5480 5489 5500 5505 5509 5514 5519 5524 5530 5532 5534 5536 5538 5541 5544 5549 5557 5563 5568 5574 5579 5586 5592 5597 5601 5604 5610 5614 5619 5623 5627 5631 5635 5638 5642 5644
5422 5422 5423 5423 5421 5420 5420 5427 5437 5450 5456 5464 5477 5487 5492 5497 5501 5507 5513 5520 5521 5524 5527 5530 5532 5536 5541 5548 5552 5557 5562 5569 5575 5583 5587 5592 5599 5602 5606 5612 5616 5620 5624 5627 5631 5634 5634
5409 5409 5409 5410 5409 5408 5408 5413 5425 5435 5442 5454 5464 5472 5478 5486 5491 5498 5504 5508 5512 5515 5519 5523 5526 5530 5536 5540 5542 5548 5552 5561 5567 5573 5579 5584 5589 5595 5600 5604 5607 5613 5618 5620 5622 5624 5626
5397 5397 5397 5397 5397 5398 5399 5405 5415 5424 5433 5443 5453 5460 5466 5477 5483 5489 5493 5498 5503 5508 5513 5517 5522 5527 5531 5533 5537 5540 5544 5551 5557 5564 5570 5576 5583 5586 5590 5597 5598 5603 5609 5612 5614 5616 5616
5385 5385 5385 5386 5387 5389 5392 5398 5406 5415 5424 5432 5442 5450 5459 5467 5474 5480 5485 5491 5497 5502 5506 5512 5517 5521 5523 5526 5531 5535 5540 5544 5550 5555 5561 5567 5573 5577 5581 5585 5590 5594 5598 5603 5605 5607 5608
5375 5375 5375 5376 5378 5381 5385 5391 5399 5407 5415 5423 5433 5442 5449 5457 5466 5472 5479 5485 5491 5497 5502 5506 5509 5513 5517 5521 5526 5530 5534 5538 5543 5548 5553 5557 5562 5569 5573 5576 5579 5584 5589 5593 5596 5598 5599
5365 5366 5367 5368 5371 5374 5379 5385 5392 5400 5408 5417 5427 5434 5441 5451 5460 5467 5474 5481 5486 5491 5495 5499 5503 5508 5513 5517 5521 5525 5529 5533 5538 5543 5548 5552 5557 5562 5566 5568 5570 5572 5579 5586 5589 5592 5592
5358 5359 5360 5362 5365 5368 5373 5379 5387 5394 5402 5409 5421 5427 5436 5446 5454 5461 5469 5476 5481 5485 5489 5495 5498 5502 5508 5513 5517 5521 5525 5529 5533 5538 5543 5549 5554 5558 5561 5563 5567 5569 5574 5580 5582 5583 5585
5352 5353 5354 5357 5360 5364 5369 5376 5382 5389 5397 5405 5415 5423 5430 5438 5449 5455 5463 5470 5475 5479 5484 5489 5494 5500 5504 5509 5513 5517 5522 5525 5530 5534 5539 5545 5550 5554 5558 5560 5560 5563 5567 5572 5574 5576 5577